Showing default

OV1-14, 3174

Orbit data source: Space-Track

OV1-14, 3174 is a payload satellite owned by USAF OAR (US) that was launched on Sat, 06 Apr 1968 UTC via an ATLAS F launch vehicle from the Air Force Western Test Range (AFWTR). Payload-class satellites include a variety of spacecraft equipped with specific instruments for various scientific and technological missions. These include communications satellites like Starlink; space stations such as the ISS; scientific satellites like the Hubble; Earth observation satellites from companies like Planet Labs, Umbra, and HawkEye 360; GPS; miniature CubeSats for education and research; and military/defense satellites.

Loading next visibility...
Identifier
3174, 1968-026B
Orbit
Active
Country
Flag of USUS
Related business
Manufacturer
GD/Convair
Mission
Civil Science
Bus & Motor
OV1, Unknown motor
Mass
101 kg wet, 101 kg dry
Launch date (UTC)
1968-04-06 (57 years ago)
Launch vehicle
ATLAS F
Launch site
Air Force Western Test Range (AFWTR)
Object type
Payload
Rocket body
Debris
Shape & HBR
Domed Cyl, 0.7 m
Radar Cross Section
0.946 m², Medium (>0.1 m² and < 1m²)

Expand to show TLE details & history
Last TLE update: 1 day ago

TLE from 1 day ago
0 OV1-14
1 03174U 68026B   25258.78579503  .00000170  00000-0  27795-3 0  9994
2 03174 100.0056 276.2460 4009039 145.0174  11.6116  6.96684839457206
Epoch: 2025-09-15T18:51Z
TLE epoch observation values (Epoch: 2025-09-15T18:51:32.69Z)
Latitude
5.89417°
Longitude
179.41214°
Altitude
816.81 km
Speed
8.742 km/s
True Right ascension
06h 29m 08s
True Declination
5° 51' 34"
Sunlit
Object was in daylight at epoch
Visualization orbit readout
Latitude
Unknown
Longitude
Unknown
Altitude
Unknown
Speed
Unknown
Apparent Right ascension
Unknown
Apparent Declination
Unknown
Sunlit
N/A
Visualization observer readout
Local Sidereal Time
12:37:52
Azimuth
Unknown
Elevation
Unknown
Doppler factor
Unknown
Orbital elements
Apogee altitude
9,841.278 km
Perigee altitude
558.091 km
Semi-major axis
11,577.822 km
Eccentricity
0.4009
Inclination
100.0056°
RAAN
276.246°
Arg. of periapsis
145.0174°
True anomaly
28.921°
Mean anomaly
11.6116°
Eccentric anomaly
19.1448°
Mean motion
1.74222 °/min
Orbital period
206.63 mins
BSTAR
0.00027795
Loading maneuver chart data...
Computing Atmospheric mass density...
Loading historical data...
Loading historical data...
Loading historical data...
Loading historical data...
Loading historical data...
Loading historical data...
Loading historical data...
Other satellites on launch #26 in the year 1968 (1968-04-06 UTC)

Documentation

Showing up to 5 results
|